Regional Weather Roundup
Issued by NWS Midland/Odessa, TX

Skip options and go directly to product.
Home | Oldest Version | Previous Version | Current Version | All | Graphics & Text | Save Text | Print | Product List | Glossary On

Skip product version selection by date and time.   
689
ASUS44 KMAF 200310
RWRMAF
MIDLAND AREA WEATHER ROUNDUP
NATIONAL WEATHER SERVICE MIDLAND TX
1000 PM CDT SAT APR 19 2014

...IN SOUTHWEST TEXAS AND SOUTHEAST NEW MEXICO...

CITY           SKY/WX    TMP DP  RH WIND       PRES   REMARKS
ALPINE         CLOUDY    57  55  93 N9        30.16S
ANDREWS        RAIN      60  58  93 S9        30.17R
ARTESIA        MOCLDY    55  48  76 W10G16    30.08F
BIG SPRING     CLOUDY    65  56  73 S7        30.14R
CARLSBAD       MOCLDY    60  56  86 N3        30.10R
DRYDEN           N/A     74  52  46 E13G26    30.02R
FORT STOCKTON  CLOUDY    62  56  80 E13       30.06S
GUAD PASS      MOCLDY    54  44  69 NE15      30.16R
HOBBS          CLOUDY    57  57 100 W5        30.14R
MARFA          CLOUDY    55  54  94 NE14      30.14R
MIDLAND AIRPK  RAIN      64  59  85 S6        30.14R
MIDLAND INTL   NOT AVBL
ODESSA         RAIN      62  58  86 SE12      30.14R FOG
PECOS          CLOUDY    60  57  91 NE6       30.09R
PRESIDIO       MOCLDY    74  49  41 MISG      29.95R
SEMINOLE       RAIN      60  57  90 E7        30.16R
SNYDER         LGT RAIN  69  53  55 S9        30.12R
WINK           CLOUDY    61  59  93 E13       30.06R
$$
...OTHER STATIONS IN TEXAS...

CITY           SKY/WX    TMP DP  RH WIND       PRES   REMARKS
ABILENE        CLOUDY    69  49  48 SE13      30.07R
AMARILLO       MOCLDY    56  48  74 S14       30.07R
AUSTIN         MOCLDY    63  56  78 S6        30.07R
BROWNSVILLE    CLOUDY    71  66  84 SE7       30.09R
CORPUS CHRISTI MOCLDY    69  63  81 SE13      30.08F
DALLAS FTW     MOCLDY    65  52  62 SE7       30.09R
DEL RIO        CLOUDY    76  52  43 SE13      30.00R
EL PASO        PTCLDY    58  49  72 N7        30.08S
HOUSTON INT    PTCLDY    67  60  78 S6        30.11S
LUBBOCK        LGT RAIN  59  57  93 S5        30.11R
SAN ANGELO     CLOUDY    73  52  47 S7        30.07R
SAN ANTONIO    PTCLDY    70  56  61 SE15      30.08R
WACO           CLEAR     63  55  75 E7        30.08R
WICHITA FALLS  NOT AVBL
$$
...OTHER LOCATIONS IN NEW MEXICO...

CITY           SKY/WX    TMP DP  RH WIND       PRES   REMARKS
ALAMAGORDO     MOCLDY    54  48  82 E3        30.12R
ALBUQUERQUE    CLOUDY    50  46  86 NE13      30.13R
CANNON AFB     CLOUDY    55  51  87 S13       30.11R
CLOVIS         CLOUDY    54  48  82 S9        30.13R
HOLLOMAN AFB   MOCLDY    56  51  84 E5        30.10S
ROSWELL        CLOUDY    58  48  69 S14       30.04F
RUIDOSO        CLOUDY    43  39  87 W15       30.21S WCI  35
SANTA FE       LGT RAIN  50  43  77 SW9       30.14R
TRUTH OR CONSE CLOUDY    55  46  71 NW7       30.11R
TUCUMCARI      MOCLDY    56  50  80 S9        30.06R
$$

USA.gov is the U.S. government's official web portal to all federal, state and local government web resources and services.